QPF
0.03 0.05 0.06 0.06 0.05 0.05 0.05 0.06 0.08 0.08 0.07 0.05 0.05 0.05 0.04 0.03 0.03 0.03 0.04 0.04 0.03 0.02 0.02 0.01 0.02 0.02 0.02 0.02 0.03 0.03 0.05 0.06 0.05 0.06 0.07 0.08 0.08 0.08
0.03 0.04 0.04 0.03 0.03 0.03 0.04 0.05 0.06 0.07 0.06 0.06 0.06 0.06 0.05 0.05 0.05 0.03 0.03 0.03 0.02 0.02 0.02 0.03 0.04 0.04 0.03 0.02 0.02 0.02 0.02 0.03 0.03 0.04 0.05 0.07 0.09 0.09
0.02 0.03 0.03 0.02 0.02 0.03 0.04 0.04 0.04 0.04 0.05 0.05 0.05 0.06 0.07 0.07 0.05 0.04 0.04 0.02 0.02 0.02 0.02 0.03 0.04 0.04 0.03 0.03 0.03 0.03 0.02 0.02 0.03 0.04 0.05 0.05 0.06 0.07
0.02 0.03 0.03 0.03 0.02 0.02 0.03 0.03 0.03 0.03 0.04 0.05 0.07 0.07 0.07 0.05 0.04 0.04 0.03 0.03 0.02 0.02 0.02 0.03 0.03 0.03 0.02 0.02 0.02 0.02 0.02 0.02 0.01 0.01 0.02 0.04 0.05 0.05
0.03 0.04 0.03 0.02 0.02 0.03 0.04 0.05 0.05 0.04 0.04 0.04 0.04 0.04 0.03 0.03 0.03 0.02 0.02 0.01 0.01 0.01 0.02 0.03 0.03 0.03 0.02 0.02 0.01 0.01 0.02 0.02 0.01 0.01 0.01 0.01 0.02 0.03
0.03 0.03 0.02 0.02 0.01 0.02 0.03 0.04 0.04 0.03 0.02 0.02 0.02 0.02 0.02 0.02 0.02 0.01 0.01 0.02 0.01 0.01 0.02 0.02 0.03 0.03 0.02 0.02 0.01 0.01 0.01 0.01 0.01 0.01 0.00 0.01 0.01 0.01
0.04 0.04 0.03 0.02 0.02 0.02 0.02 0.03 0.03 0.03 0.02 0.02 0.02 0.03 0.03 0.02 0.01 0.01 0.01 0.02 0.02 0.02 0.02 0.02 0.02 0.03 0.03 0.03 0.03 0.03 0.03 0.02 0.02 0.01 0.01 0.00 0.00 0.00
0.03 0.04 0.03 0.03 0.03 0.04 0.04 0.04 0.04 0.02 0.02 0.02 0.03 0.03 0.02 0.02 0.01 0.02 0.02 0.02 0.02 0.02 0.02 0.02 0.02 0.03 0.04 0.04 0.04 0.04 0.03 0.03 0.03 0.03 0.02 0.01 0.01 0.01
0.02 0.03 0.02 0.03 0.03 0.03 0.04 0.03 0.03 0.01 0.01 0.02 0.03 0.03 0.02 0.01 0.01 0.02 0.02 0.02 0.02 0.02 0.02 0.02 0.02 0.02 0.03 0.03 0.03 0.03 0.03 0.04 0.04 0.04 0.04 0.03 0.02 0.01
0.01 0.02 0.02 0.02 0.02 0.02 0.03 0.02 0.02 0.01 0.01 0.01 0.01 0.01 0.01 0.01 0.01 0.01 0.01 0.01 0.01 0.01 0.01 0.01 0.01 0.01 0.02 0.02 0.02 0.03 0.04 0.05 0.05 0.05 0.05 0.04 0.03 0.02
0.01 0.02 0.02 0.02 0.02 0.02 0.02 0.02 0.02 0.01 0.01 0.00 0.00 0.00 0.00 0.01 0.01 0.00 0.01 0.01 0.01 0.00 0.00 0.01 0.01 0.02 0.03 0.03 0.03 0.04 0.03 0.03 0.04 0.06 0.06 0.04 0.03 0.03
0.02 0.03 0.03 0.03 0.03 0.03 0.02 0.02 0.02 0.01 0.01 0.00 0.00 0.00 0.01 0.01 0.00 0.00 0.01 0.01 0.01 0.01 0.01 0.01 0.02 0.02 0.03 0.03 0.03 0.03 0.03 0.02 0.02 0.03 0.04 0.04 0.03 0.03
0.03 0.03 0.02 0.03 0.02 0.03 0.03 0.02 0.03 0.02 0.01 0.01 0.01 0.01 0.00 0.00 0.00 0.00 0.00 0.00 0.00 0.01 0.01 0.01 0.01 0.02 0.02 0.02 0.01 0.01 0.01 0.00 0.01 0.02 0.03 0.03 0.03 0.03
0.03 0.03 0.04 0.03 0.03 0.03 0.03 0.02 0.02 0.02 0.01 0.01 0.01 0.00 0.00 0.00 0.00 0.00 0.00 0.00 0.00 0.00 0.00 0.01 0.01 0.01 0.02 0.02 0.01 0.01 0.01 0.00 0.00 0.01 0.02 0.03 0.02 0.02
0.07 0.08 0.06 0.05 0.05 0.04 0.03 0.03 0.02 0.02 0.02 0.01 0.00 0.00 0.00 0.00 0.00 0.00 0.00 0.00 0.00 0.00 0.00 0.00 0.01 0.01 0.01 0.01 0.01 0.01 0.01 0.01 0.01 0.01 0.01 0.02 0.02 0.02
0.13 0.12 0.09 0.06 0.04 0.03 0.02 0.02 0.02 0.02 0.01 0.01 0.00 0.00 0.00 0.00 0.00 0.00 0.00 0.00 0.00 0.00 0.00 0.00 0.01 0.01 0.01 0.01 0.01 0.01 0.01 0.01 0.01 0.01 0.02 0.02 0.02 0.02
0.12 0.11 0.09 0.05 0.03 0.03 0.02 0.02 0.02 0.02 0.01 0.00 0.00 0.00 0.00 0.00 0.00 0.00 0.00 0.00 0.00 0.00 0.00 0.01 0.01 0.01 0.01 0.01 0.02 0.02 0.02 0.01 0.01 0.02 0.02 0.02 0.02 0.01
0.06 0.05 0.05 0.03 0.02 0.02 0.02 0.02 0.01 0.01 0.00 0.00 0.00 0.00 0.00 0.00 0.00 0.00 0.00 0.00 0.00 0.01 0.01 0.02 0.02 0.02 0.02 0.02 0.02 0.02 0.02 0.01 0.01 0.02 0.02 0.02 0.02 0.01
0.04 0.04 0.03 0.02 0.02 0.01 0.01 0.01 0.00 0.01 0.01 0.01 0.01 0.00 0.00 0.01 0.01 0.00 0.00 0.00 0.00 0.00 0.01 0.01 0.02 0.03 0.03 0.02 0.01 0.00 0.01 0.01 0.01 0.02 0.02 0.02 0.02 0.01
0.03 0.02 0.01 0.02 0.02 0.01 0.01 0.01 0.01 0.01 0.01 0.01 0.00 0.01 0.01 0.01 0.01 0.00 0.00 0.00 0.00 0.00 0.00 0.01 0.01 0.01 0.01 0.01 0.00 0.00 0.00 0.00 0.00 0.01 0.01 0.01 0.01 0.01
0.02 0.01 0.01 0.02 0.01 0.02 0.02 0.03 0.02 0.01 0.01 0.01 0.01 0.01 0.01 0.01 0.01 0.01 0.01 0.01 0.01 0.00 0.00 0.00 0.00 0.00 0.01 0.01 0.01 0.01 0.01 0.00 0.00 0.01 0.01 0.02 0.01 0.01
0.02 0.02 0.02 0.02 0.02 0.03 0.03 0.02 0.02 0.02 0.02 0.02 0.01 0.01 0.01 0.02 0.02 0.02 0.02 0.01 0.01 0.00 0.00 0.00 0.01 0.01 0.01 0.02 0.02 0.02 0.01 0.01 0.01 0.01 0.01 0.01 0.01 0.01
0.02 0.02 0.02 0.03 0.03 0.03 0.03 0.03 0.03 0.02 0.02 0.03 0.03 0.03 0.03 0.03 0.02 0.02 0.01 0.01 0.00 0.00 0.01 0.01 0.01 0.01 0.01 0.02 0.02 0.02 0.02 0.01 0.01 0.01 0.01 0.01 0.01 0.00
MSLP
1014.04 1014.17 1014.34 1014.53 1014.70 1014.84 1014.92 1014.95 1014.93 1014.89 1014.83 1014.79 1014.78 1014.83 1014.91 1015.04 1015.21 1015.39 1015.58 1015.77 1015.96 1016.15 1016.35 1016.56 1016.78 1017.01 1017.23 1017.44 1017.63 1017.78 1017.90 1017.99 1018.08 1018.17 1018.31 1018.50 1018.77 1019.10
1013.89 1013.98 1014.10 1014.24 1014.38 1014.48 1014.56 1014.59 1014.59 1014.58 1014.58 1014.60 1014.66 1014.77 1014.93 1015.12 1015.34 1015.56 1015.77 1015.97 1016.16 1016.34 1016.52 1016.72 1016.92 1017.15 1017.38 1017.61 1017.84 1018.04 1018.21 1018.36 1018.49 1018.63 1018.79 1018.99 1019.25 1019.57
1013.89 1013.94 1014.01 1014.08 1014.16 1014.22 1014.26 1014.27 1014.28 1014.30 1014.34 1014.43 1014.58 1014.78 1015.03 1015.31 1015.61 1015.90 1016.17 1016.40 1016.60 1016.78 1016.94 1017.11 1017.28 1017.48 1017.70 1017.93 1018.17 1018.39 1018.60 1018.79 1018.96 1019.13 1019.30 1019.51 1019.74 1020.02
1014.01 1014.01 1014.03 1014.04 1014.05 1014.05 1014.05 1014.04 1014.04 1014.08 1014.16 1014.32 1014.54 1014.83 1015.18 1015.57 1015.96 1016.33 1016.67 1016.95 1017.17 1017.34 1017.49 1017.62 1017.76 1017.91 1018.09 1018.30 1018.52 1018.75 1018.97 1019.18 1019.38 1019.57 1019.75 1019.95 1020.16 1020.41
1014.16 1014.14 1014.11 1014.07 1014.03 1013.99 1013.94 1013.91 1013.91 1013.95 1014.07 1014.26 1014.55 1014.92 1015.35 1015.82 1016.30 1016.75 1017.15 1017.47 1017.72 1017.90 1018.02 1018.11 1018.21 1018.31 1018.44 1018.60 1018.80 1019.02 1019.24 1019.47 1019.68 1019.89 1020.08 1020.27 1020.47 1020.68
1014.26 1014.23 1014.19 1014.13 1014.07 1014.00 1013.93 1013.89 1013.88 1013.92 1014.05 1014.27 1014.59 1015.00 1015.48 1016.01 1016.54 1017.04 1017.48 1017.84 1018.11 1018.28 1018.39 1018.45 1018.49 1018.55 1018.63 1018.76 1018.92 1019.12 1019.35 1019.59 1019.82 1020.05 1020.26 1020.46 1020.64 1020.83
1014.26 1014.25 1014.22 1014.17 1014.11 1014.05 1013.99 1013.95 1013.93 1013.98 1014.10 1014.31 1014.63 1015.04 1015.53 1016.06 1016.60 1017.12 1017.58 1017.96 1018.23 1018.40 1018.49 1018.53 1018.54 1018.55 1018.60 1018.70 1018.84 1019.04 1019.28 1019.53 1019.79 1020.05 1020.28 1020.49 1020.68 1020.86
1014.12 1014.15 1014.16 1014.16 1014.14 1014.11 1014.08 1014.05 1014.05 1014.08 1014.18 1014.36 1014.64 1015.00 1015.45 1015.94 1016.46 1016.96 1017.40 1017.76 1018.03 1018.20 1018.28 1018.30 1018.30 1018.30 1018.34 1018.42 1018.57 1018.78 1019.03 1019.32 1019.61 1019.90 1020.16 1020.40 1020.59 1020.77
1013.88 1013.96 1014.03 1014.09 1014.14 1014.16 1014.17 1014.17 1014.17 1014.19 1014.25 1014.38 1014.58 1014.87 1015.23 1015.65 1016.10 1016.55 1016.95 1017.29 1017.54 1017.71 1017.79 1017.82 1017.82 1017.83 1017.87 1017.97 1018.13 1018.36 1018.64 1018.96 1019.29 1019.62 1019.91 1020.16 1020.38 1020.54
1013.59 1013.72 1013.86 1013.98 1014.09 1014.18 1014.23 1014.26 1014.26 1014.26 1014.27 1014.33 1014.45 1014.64 1014.90 1015.23 1015.59 1015.97 1016.32 1016.62 1016.86 1017.02 1017.12 1017.16 1017.18 1017.22 1017.28 1017.40 1017.59 1017.84 1018.16 1018.51 1018.87 1019.22 1019.53 1019.80 1020.01 1020.17
1013.34 1013.52 1013.70 1013.88 1014.03 1014.16 1014.24 1014.28 1014.28 1014.24 1014.21 1014.20 1014.24 1014.34 1014.50 1014.73 1015.02 1015.32 1015.62 1015.90 1016.12 1016.29 1016.40 1016.47 1016.52 1016.57 1016.66 1016.81 1017.02 1017.30 1017.63 1017.99 1018.36 1018.72 1019.04 1019.30 1019.50 1019.64
1013.20 1013.39 1013.59 1013.78 1013.96 1014.09 1014.18 1014.21 1014.19 1014.13 1014.06 1013.99 1013.97 1013.99 1014.09 1014.25 1014.47 1014.72 1014.99 1015.24 1015.46 1015.63 1015.76 1015.85 1015.92 1016.00 1016.11 1016.27 1016.49 1016.77 1017.09 1017.45 1017.81 1018.15 1018.44 1018.68 1018.84 1018.95
1013.20 1013.37 1013.54 1013.72 1013.86 1013.97 1014.03 1014.04 1013.99 1013.91 1013.81 1013.72 1013.66 1013.66 1013.72 1013.86 1014.05 1014.28 1014.53 1014.77 1014.98 1015.16 1015.29 1015.39 1015.47 1015.56 1015.67 1015.83 1016.03 1016.29 1016.59 1016.91 1017.23 1017.53 1017.78 1017.97 1018.10 1018.17
1013.29 1013.41 1013.53 1013.64 1013.72 1013.77 1013.78 1013.75 1013.68 1013.59 1013.49 1013.41 1013.37 1013.38 1013.46 1013.60 1013.80 1014.04 1014.29 1014.53 1014.74 1014.92 1015.05 1015.14 1015.22 1015.29 1015.38 1015.51 1015.67 1015.89 1016.14 1016.41 1016.67 1016.91 1017.11 1017.25 1017.34 1017.37
1013.39 1013.44 1013.48 1013.49 1013.50 1013.47 1013.43 1013.36 1013.28 1013.20 1013.14 1013.11 1013.12 1013.20 1013.34 1013.53 1013.78 1014.04 1014.30 1014.55 1014.75 1014.91 1015.02 1015.09 1015.14 1015.17 1015.22 1015.30 1015.42 1015.58 1015.77 1015.98 1016.18 1016.36 1016.51 1016.60 1016.66 1016.67
1013.41 1013.38 1013.32 1013.24 1013.16 1013.06 1012.97 1012.89 1012.83 1012.79 1012.80 1012.86 1012.97 1013.15 1013.38 1013.66 1013.95 1014.25 1014.53 1014.78 1014.97 1015.09 1015.17 1015.19 1015.19 1015.18 1015.18 1015.21 1015.27 1015.37 1015.51 1015.65 1015.80 1015.93 1016.04 1016.11 1016.14 1016.15
1013.25 1013.14 1012.99 1012.84 1012.68 1012.55 1012.44 1012.37 1012.36 1012.41 1012.52 1012.70 1012.94 1013.24 1013.58 1013.94 1014.30 1014.64 1014.93 1015.15 1015.31 1015.39 1015.41 1015.38 1015.32 1015.25 1015.20 1015.17 1015.19 1015.25 1015.34 1015.45 1015.56 1015.66 1015.75 1015.81 1015.84 1015.88
1012.86 1012.69 1012.49 1012.29 1012.10 1011.97 1011.88 1011.88 1011.95 1012.11 1012.35 1012.67 1013.05 1013.47 1013.92 1014.36 1014.76 1015.11 1015.40 1015.59 1015.69 1015.72 1015.67 1015.58 1015.46 1015.34 1015.24 1015.18 1015.16 1015.20 1015.27 1015.35 1015.46 1015.56 1015.64 1015.72 1015.77 1015.83
1012.28 1012.08 1011.86 1011.66 1011.49 1011.39 1011.38 1011.46 1011.65 1011.94 1012.32 1012.78 1013.28 1013.81 1014.34 1014.83 1015.26 1015.60 1015.85 1015.99 1016.03 1015.99 1015.88 1015.72 1015.55 1015.39 1015.26 1015.18 1015.15 1015.18 1015.24 1015.34 1015.45 1015.56 1015.66 1015.76 1015.85 1015.94
1011.61 1011.41 1011.21 1011.04 1010.93 1010.91 1010.99 1011.19 1011.50 1011.92 1012.43 1013.00 1013.60 1014.20 1014.77 1015.28 1015.70 1016.01 1016.20 1016.28 1016.26 1016.15 1015.97 1015.77 1015.56 1015.38 1015.23 1015.15 1015.12 1015.15 1015.23 1015.34 1015.47 1015.60 1015.73 1015.85 1015.97 1016.09
1010.98 1010.81 1010.66 1010.55 1010.53 1010.60 1010.79 1011.10 1011.53 1012.05 1012.65 1013.29 1013.95 1014.58 1015.15 1015.63 1016.01 1016.26 1016.39 1016.40 1016.32 1016.15 1015.93 1015.70 1015.47 1015.28 1015.14 1015.05 1015.04 1015.08 1015.17 1015.30 1015.45 1015.60 1015.75 1015.89 1016.03 1016.16
1010.53 1010.41 1010.32 1010.29 1010.35 1010.52 1010.80 1011.20 1011.70 1012.29 1012.93 1013.59 1014.24 1014.85 1015.38 1015.80 1016.11 1016.30 1016.36 1016.32 1016.18 1015.98 1015.74 1015.50 1015.28 1015.09 1014.96 1014.90 1014.89 1014.95 1015.05 1015.18 1015.34 1015.50 1015.65 1015.80 1015.94 1016.07
1010.35 1010.28 1010.25 1010.30 1010.43 1010.67 1011.02 1011.46 1011.99 1012.58 1013.21 1013.84 1014.43 1014.97 1015.42 1015.77 1016.00 1016.11 1016.12 1016.03 1015.87 1015.66 1015.43 1015.20 1015.00 1014.84 1014.73 1014.68 1014.70 1014.76 1014.86 1014.99 1015.14 1015.29 1015.44 1015.58 1015.70 1015.82
Thickness
5746 5744 5742 5741 5739 5737 5733 5728 5720 5713 5708 5706 5703 5701 5698 5695 5691 5690 5686 5681 5679 5677 5676 5675 5674 5673 5671 5670 5669 5667 5665 5664 5662 5660 5659 5657 5657 5656
5743 5741 5739 5740 5737 5735 5732 5729 5724 5718 5709 5704 5700 5697 5693 5691 5686 5684 5680 5676 5673 5671 5669 5668 5666 5665 5664 5662 5661 5659 5657 5655 5654 5652 5651 5649 5648 5647
5741 5739 5736 5735 5734 5733 5730 5726 5722 5717 5708 5702 5698 5693 5688 5685 5681 5678 5675 5672 5668 5665 5663 5661 5659 5658 5656 5654 5652 5650 5649 5647 5646 5644 5642 5641 5640 5639
5738 5736 5734 5733 5730 5729 5726 5722 5718 5713 5708 5698 5693 5689 5684 5680 5677 5674 5671 5669 5664 5659 5656 5654 5652 5650 5648 5646 5644 5642 5640 5638 5637 5635 5634 5633 5631 5629
5736 5734 5731 5729 5726 5724 5721 5718 5715 5711 5705 5698 5691 5685 5681 5677 5673 5670 5667 5662 5660 5655 5651 5647 5645 5642 5640 5638 5635 5633 5632 5630 5628 5626 5625 5623 5621 5619
5734 5732 5729 5727 5723 5720 5717 5713 5710 5705 5700 5696 5690 5684 5678 5673 5670 5667 5662 5659 5656 5652 5647 5643 5639 5636 5633 5630 5628 5626 5624 5621 5619 5617 5615 5613 5612 5610
5730 5728 5726 5722 5718 5716 5715 5710 5706 5702 5697 5693 5687 5681 5675 5669 5666 5664 5660 5655 5650 5648 5644 5640 5637 5633 5629 5624 5621 5618 5616 5613 5611 5609 5606 5604 5602 5599
5726 5724 5722 5718 5713 5709 5706 5703 5700 5697 5693 5689 5684 5678 5671 5667 5663 5660 5656 5652 5647 5643 5640 5636 5633 5630 5626 5621 5615 5611 5608 5606 5603 5600 5598 5595 5592 5590
5723 5721 5720 5717 5711 5707 5701 5696 5692 5689 5686 5684 5680 5674 5669 5665 5658 5655 5650 5647 5643 5639 5635 5632 5629 5625 5621 5615 5609 5605 5601 5598 5595 5592 5590 5587 5584 5581
5721 5718 5714 5711 5708 5703 5699 5694 5690 5685 5681 5678 5675 5670 5666 5660 5654 5650 5645 5641 5637 5634 5630 5628 5624 5620 5616 5610 5604 5600 5596 5592 5589 5586 5583 5580 5577 5574
5717 5714 5711 5706 5700 5695 5693 5689 5684 5680 5674 5669 5665 5661 5656 5652 5648 5646 5641 5638 5634 5631 5627 5624 5620 5616 5611 5607 5600 5595 5591 5587 5584 5580 5577 5573 5570 5567
5713 5709 5703 5700 5694 5690 5688 5685 5679 5675 5671 5665 5660 5655 5651 5647 5642 5640 5638 5635 5632 5628 5624 5619 5616 5611 5607 5604 5598 5592 5587 5582 5578 5575 5571 5567 5564 5561
5710 5706 5701 5693 5687 5683 5681 5679 5675 5670 5667 5663 5658 5654 5649 5644 5639 5635 5632 5629 5627 5623 5619 5613 5610 5606 5602 5599 5595 5590 5585 5581 5576 5571 5566 5562 5558 5554
5704 5702 5695 5686 5681 5676 5673 5670 5667 5663 5663 5659 5655 5651 5646 5641 5635 5629 5624 5621 5617 5615 5610 5606 5604 5600 5596 5593 5590 5586 5581 5577 5573 5569 5564 5558 5553 5549
5697 5691 5686 5680 5674 5670 5665 5662 5660 5660 5658 5654 5650 5645 5641 5635 5629 5623 5618 5614 5610 5607 5604 5599 5596 5594 5591 5587 5584 5580 5576 5572 5568 5563 5559 5555 5551 5547
5688 5683 5677 5672 5669 5665 5661 5657 5656 5655 5652 5648 5644 5640 5635 5630 5625 5620 5615 5610 5607 5603 5597 5593 5588 5585 5583 5580 5578 5575 5571 5567 5563 5558 5554 5550 5547 5544
5684 5679 5675 5670 5667 5663 5660 5656 5652 5648 5644 5641 5638 5634 5629 5624 5620 5615 5610 5607 5603 5599 5594 5588 5583 5579 5575 5574 5571 5568 5565 5561 5557 5553 5547 5546 5544 5541
5676 5675 5672 5668 5664 5661 5657 5652 5647 5643 5639 5636 5632 5628 5623 5619 5614 5610 5606 5602 5598 5594 5590 5586 5581 5576 5572 5569 5563 5561 5559 5556 5552 5547 5543 5541 5539 5537
5669 5670 5668 5665 5661 5657 5653 5649 5644 5639 5634 5630 5626 5622 5617 5613 5609 5604 5600 5596 5592 5588 5584 5581 5577 5572 5569 5566 5562 5554 5552 5549 5547 5544 5540 5537 5535 5532
5667 5666 5663 5659 5656 5652 5648 5643 5639 5634 5629 5624 5620 5616 5612 5608 5603 5599 5595 5590 5586 5582 5578 5575 5571 5567 5563 5560 5558 5554 5546 5544 5542 5539 5536 5533 5531 5525
5663 5661 5658 5655 5651 5647 5643 5638 5633 5628 5623 5619 5615 5610 5606 5602 5598 5594 5590 5581 5578 5576 5573 5569 5565 5559 5557 5553 5550 5549 5544 5537 5533 5530 5528 5526 5524 5522
5659 5656 5653 5649 5645 5641 5637 5632 5627 5623 5618 5614 5610 5606 5601 5597 5592 5587 5583 5578 5573 5570 5567 5564 5559 5556 5553 5550 5546 5543 5540 5535 5528 5524 5519 5516 5515 5513
5653 5650 5647 5643 5639 5635 5631 5627 5623 5619 5614 5610 5605 5601 5596 5590 5585 5581 5577 5573 5569 5566 5562 5559 5556 5552 5549 5546 5542 5539 5535 5531 5528 5523 5519 5512 5507 5502